星链-32529 (STARLINK-32529)

导读 | 豆包AI

STARLINK-32529是美国SpaceX公司星链星座的成员卫星,于2024年11月30日发射,作为SpaceX构建全球低轨宽带互联网的组成部分,运行在近地轨道。它采用平板设计与霍尔推进技术,配备相控阵通信载荷,依托猎鹰火箭低成本发射,为全球用户提供覆盖偏远地区的高速卫星互联网接入,服务海事、航空、应急通信等多场景,助力星链完成万颗卫星的全球星座组网。

基本信息
目录编号:
62139
目录名称:
STARLINK-32529
国际标识:
2024-224A
轨道中心:
EARTH
卫星名称:
星链-32529
卫星全名:
星链-32529 (STARLINK-32529)
卫星状态:
在轨 (已飞行517 天)
发射日期:
2024-11-30 UTC
国别 :
美国 (US)
星等 :
--
轨道信息
数据来源 国际轨道数据 AOE轨道数据
星历时间 2026-04-30T21:56:52+0800
12小时前
查看轨道信息
2026-04-28T07:00:00+0800
3天前
查看轨道信息
半长轴 6861.117km 6861.139km
偏心率 0.0001562 0.0001486
轨道倾角 42.999° 42.999°
近地点辐角 270.433° 284.074°
升交点赤经 225.288° 240.099°
平近点角 89.634° 35.505°
近地点 481.908km 481.982km
远地点 484.052km 484.022km
周期 94.265分钟 94.266分钟
每日圈数 15.276031 15.27596
详细信息
固有亮度:
5
最大亮度:
2.5
卫星平台:
Starlink V1.0
覆盖范围:
全球
运营商:
太空探索技术公司
运营商所在国:
美国
制造商(研发单位):
太空探索技术公司
制造商所在国:
美国
使用方式:
暂无
卫星简介
Starlink 计划是 SpaceX 推出的全球卫星互联网项目,通过发射低轨道卫星,为全球尤其是偏远地区提供高速、低延迟的互联网服务。自 2019 年起,Starlink 已部署数千颗卫星,旨在缩小全球数字鸿沟,推动互联网普及。该项目还为军事、航空等行业提供通信支持,带来广泛经济效益。
2D轨道图
3D轨道图
轨道高度分析图
轨道倾角分析图
轨道综合分析图
查看轨道综合分析图